Flag for Ecuador Weather past 2 weeks in Quito, Ecuador

Now
48 °F

Passing clouds.


Feels Like: 46 °F
Forecast: 50 / 64 °F
Wind: 5 mph from South

Location: Latacunga Airport

Current Time: Oct 20, 2014 at 5:58:55 AM

Latest Report: Oct 20, 2014 at 5:00 AM


Visibility: N/A

Pressure: 30.39 "Hg

Humidity: 100%

Dew point: 48 °F

Location of QuitoLocation

Historic Weather in Quito — Graph

°F

Quito temperature yesterday

Maximum temperature yesterday: 70 °F (at 3:00 PM)
Minimum temperature yesterday: 48 °F (at 3:00 AM)
Average temperature yesterday: 58 °F

Past Weeks' High & Low Weather Summary

 TemperatureHumidityPressure
High70 °F (Oct 19, 3:00 PM)100% (Oct 5, 5:00 AM)30.54 "Hg (Oct 5, 5:00 AM)
Low43 °F (Oct 6, 7:00 AM)38% (Oct 5, 2:00 PM)30.21 "Hg (Oct 9, 2:00 PM)
Average55 °F85%30.40 "Hg
* Reported Oct 5 5:00 AM — Oct 20 5:00 AM, Quito, Weather by CustomWeather, © 2014

Note: Actual official high and low records may vary slightly from our data, if they occured in-between our weather recording intervals... More about our weather records

Advertising

Quito weather history for previous 24 hours

 ConditionsComfort  
Time TempWeatherWind HumidityBarometerVisibility
5:00 AM
Oct 20
48 °FPassing clouds.5 mph100%30.39 "HgN/A
4:00 AM50 °FPassing clouds.5 mph100%30.39 "HgN/A
3:00 AM50 °FPassing clouds.3 mph100%30.39 "HgN/A
2:00 AM50 °FPassing clouds.5 mph100%30.39 "HgN/A
1:00 AM52 °FPassing clouds.6 mph94%30.42 "HgN/A
12:00 AM52 °FPassing clouds.2 mph100%30.42 "HgN/A
10:00 PM
Oct 19
52 °FPassing clouds.2 mph100%30.45 "HgN/A
9:00 PM52 °FPassing clouds.5 mph100%30.42 "HgN/A
8:00 PM54 °FLight rain. Passing clouds.2 mph94%30.42 "HgN/A
7:00 PM54 °FLight rain. Passing clouds.8 mph94%30.33 "HgN/A
6:00 PM57 °FBroken clouds.5 mph82%30.33 "HgN/A
5:00 PM57 °FLight rain. Broken clouds.8 mph82%30.30 "HgN/A
4:00 PM64 °FScattered clouds.8 mph56%30.27 "HgN/A
3:00 PM70 °FScattered clouds.10 mph38%30.27 "HgN/A
2:00 PM68 °FBroken clouds.9 mph40%30.30 "HgN/A
1:00 PM66 °FPartly sunny.10 mph52%30.36 "HgN/A
12:00 PM66 °FBroken clouds.10 mph52%30.39 "HgN/A
11:00 AM66 °FBroken clouds.9 mph49%30.42 "HgN/A
10:00 AM63 °FBroken clouds.7 mph64%30.45 "HgN/A
9:00 AM57 °FBroken clouds.5 mph77%30.48 "HgN/A
8:00 AM55 °FBroken clouds.6 mph82%30.45 "HgN/A
7:00 AM54 °FPartly sunny.1 mph94%30.42 "HgN/A
6:00 AM50 °FPartly sunny.2 mph100%30.42 "HgN/A
Weather by CustomWeather, © 2014

See weather overviewHow to use our weather pages